Location: *
(57.8420°S, 159.8600°W)
Time: 04:06:36
(UTC+00:00)

Cosmos 1825 - Pass Details

Date: 18 May 2021
Orbit: 500 x 507 km, 82.5° (Epoch: 20 June)

Event Time Altitude Azimuth Distance (km) Brightness Sun altitude
Rises 03:19:40 0° 19° (NNE) 2,613 5.9 -6.9°
Reaches altitude 10° 03:21:58 10° 31° (NNE) 1,736 4.8 -7.2°
Maximum altitude 03:25:15 28° 90° (E) 998 3.2 -7.6°
Drops below altitude 10° 03:28:34 10° 149° (SSE) 1,757 4.4 -8.0°
Enters shadow 03:30:08 - 158° (SSE) 2,350 5.1 -8.2°
